Regional Weather Roundup
Issued by NWS Cleveland, OH

Home | Current Version | Previous Version | Text Only | Print | Product List | Glossary Off
Versions: 1 2 3 4 5 6 7 8 9 10 11 12 13 14 15 16 17 18 19 20 21 22 23 24 25 26 27 28 29 30 31 32 33 34 35 36 37 38 39 40 41 42 43 44 45 46 47 48 49 50

557
ASUS41 KCLE 290810
RWRCLE
OHIO REGIONAL WEATHER ROUNDUP
NATIONAL WEATHER SERVICE CLEVELAND, OH
400 AM EDT MON MAY 29 2017

NOTE: "FAIR" INDICATES FEW OR NO CLOUDS BELOW 12,000 FEET WITH NO
SIGNIFICANT WEATHER AND/OR OBSTRUCTIONS TO VISIBILITY.

OHZ001>008-015>018-024>027-034-035-043-044-290900-
   NORTHWEST OHIO

CITY           SKY/WX    TMP DP  RH WIND       PRES   REMARKS
DEFIANCE       CLEAR     56  55  97 SW3       29.78S
FINDLAY        CLEAR     58  54  86 SW7       29.78F
TOLEDO EXPRESS PTCLDY    58  57  97 SW7       29.75F
TOLEDO EXEC    CLEAR     60  58  92 SW6       29.76F
LIMA           CLEAR     59  59 100 S8        29.81S
$$

OHZ009>014-019>023-028>033-038-089-290900-
   NORTHEAST OHIO

CITY           SKY/WX    TMP DP  RH WIND       PRES   REMARKS
CLE-HOPKINS    CLOUDY    63  60  90 SW9       29.78R
CLE-LAKEFRONT  CLOUDY    63  59  87 SW15      29.75R
CUY CO. ARPT   NOT AVBL
LORAIN-ELYRIA  PTCLDY    61  55  81 W9        29.77S
ASHTABULA      MOCLDY    61  60  97 SW7       29.76S
AKRON-CANTON   CLOUDY    60  57  89 SW5       29.79S
WOOSTER        MOCLDY    60  58  92 W8        29.80R
MANSFIELD      CLEAR     59  58  96 W8        29.80S
YOUNGSTOWN     CLOUDY    61  59  93 SW7       29.78R
$$

OHZ042-051>053-060>062-070>072-077>081-290900-
  SOUTHWEST OHIO

CITY           SKY/WX    TMP DP  RH WIND       PRES   REMARKS
CINC-COVINGTON MOCLDY    60  59  96 SW5       29.86F
CINC-LUNKEN    PTCLDY    57  57 100 SW6       29.86S FOG
HAMILTON       FOG       59  59 100 CALM      29.86S VSB<1/4
DAYTON         CLEAR     60  59  96 SW8       29.85S
WRIGHT-PAT AFB CLEAR     59  59 100 S5        29.83F
DAYTON GENERAL CLEAR     60  59  96 SW3       29.84F FOG
WILMINGTON     CLEAR     60  60 100 SW6       29.84F FOG
$$

OHZ036-037-039>041-045>050-054>059-063>069-073>076-082>088-290900-
  CENTRAL AND SOUTHEAST OHIO

CITY           SKY/WX    TMP DP  RH WIND       PRES   REMARKS
COLUMBUS       CLEAR     63  62  97 W6        29.82S
OSU AIRPORT    CLEAR     61  61 100 W6        29.82S
BOLTON FIELD   CLEAR     62  60  95 W6        29.84S
RICKENBACK AFB PTCLDY    62  61  94 W8        29.83S
NEWARK         CLOUDY    62  59  90 W6        29.82R
MARION         CLEAR     59  57  93 SW7       29.82R
LANCASTER      PTCLDY    66  62  87 W5        29.84R
ZANESVILLE     LGT RAIN  62  60  93 NW5       29.83R
NEW PHILLY     NOT AVBL
$$




USA.gov is the U.S. government's official web portal to all federal, state and local government web resources and services.